Snowfall_Accumulation
0.0 0.0 0.0 0.0 0.0 0.0 0.0 0.0 0.0 0.0 0.0 0.0 0.0 0.0 0.0 0.0 0.0 0.0 0.0 0.0 0.0 0.0 0.0 0.0 0.0 0.0 0.1 0.2 0.1 0.0 0.1 0.1 1.1 0.1 0.0 0.0 0.0 0.1 0.0 0.1 0.3 0.0 0.0
0.0 0.0 0.0 0.0 0.0 0.0 0.0 0.0 0.0 0.0 0.0 0.0 0.0 0.0 0.0 0.0 0.0 0.0 0.0 0.0 0.0 0.1 0.1 0.1 0.1 0.0 0.1 0.1 0.1 0.2 0.1 0.0 0.2 0.5 0.0 0.0 0.0 0.0 0.0 0.0 0.0 0.0 0.2
0.0 0.0 0.0 0.0 0.0 0.0 0.0 0.0 0.0 0.0 0.0 0.0 0.0 0.0 0.0 0.0 0.0 0.0 0.1 0.1 0.1 0.1 0.1 0.1 0.1 0.2 0.3 0.4 0.1 0.2 0.2 0.1 0.1 0.9 0.1 0.0 0.0 0.0 0.3 0.2 0.0 0.1 0.0
0.0 0.0 0.0 0.0 0.0 0.0 0.0 0.1 0.0 0.0 0.0 0.0 0.0 0.0 0.0 0.0 0.0 0.0 0.0 0.0 0.0 0.1 0.1 0.1 0.1 0.2 0.4 0.2 0.3 0.4 0.3 0.8 0.6 0.8 0.7 0.0 0.0 0.0 0.4 0.5 0.6 0.5 0.4
0.0 0.0 0.0 0.0 0.0 0.3 0.3 0.3 0.3 0.3 0.2 0.2 0.2 0.0 0.0 0.0 0.0 0.0 0.1 0.2 0.3 0.2 0.2 0.0 0.0 0.0 nan nan 0.8 0.8 0.6 1.0 1.3 1.3 0.9 0.0 0.0 0.6 0.6 0.6 0.6 0.5 0.4
0.0 0.0 0.0 0.5 0.8 0.6 0.8 1.2 0.5 0.3 0.4 0.3 0.3 0.3 0.0 0.0 nan nan 0.5 1.0 0.4 0.4 0.4 0.2 0.0 0.1 0.1 nan nan nan nan 1.7 3.9 3.8 1.9 1.2 0.2 0.5 0.5 0.7 0.8 1.0 1.7
0.8 1.5 1.6 1.7 2.1 1.3 0.9 1.1 0.9 0.8 0.8 0.4 0.4 0.3 0.3 0.2 nan nan nan 1.2 0.9 0.4 0.4 0.3 0.3 0.1 0.2 0.2 nan nan nan nan nan 0.3 2.0 0.6 0.3 0.1 0.1 0.2 0.3 1.1 1.0
2.5 3.3 2.2 1.9 3.1 0.8 0.8 0.7 0.9 0.7 0.8 0.5 0.8 0.8 0.5 0.2 nan nan nan 1.1 0.8 0.4 0.3 0.3 0.3 0.3 0.2 0.3 0.9 0.9 0.7 0.5 0.2 0.1 0.3 0.2 0.1 0.1 0.2 0.2 0.4 0.8 1.1
1.0 1.6 1.8 2.6 3.6 1.3 3.6 0.7 0.6 2.1 1.2 2.4 2.5 3.4 2.8 2.9 nan nan 1.9 2.5 1.7 1.0 0.5 0.5 0.4 0.4 nan nan 1.4 2.1 1.3 0.8 nan nan nan nan nan nan nan 2.9 7.3 8.7 5.6
1.1 1.0 1.2 2.4 4.8 3.7 1.9 3.0 3.4 3.3 3.1 3.4 3.2 2.7 0.8 4.9 nan nan nan 5.9 4.8 2.9 1.0 0.8 0.2 0.5 nan nan 1.2 1.6 2.4 1.1 0.7 2.5 0.4 0.2 nan nan nan 0.3 2.6 7.2 4.6
1.7 1.4 1.6 2.2 5.0 3.2 3.7 2.9 4.1 4.2 2.2 3.6 3.4 2.6 3.1 1.8 2.0 nan nan 3.8 4.7 5.2 4.3 2.7 1.3 nan nan nan nan 1.7 1.9 0.5 2.3 2.0 1.7 1.8 1.0 0.6 1.1 0.8 0.4 1.7 3.5
1.6 1.8 3.2 5.1 5.1 4.9 8.1 4.7 6.2 5.5 5.3 4.5 4.6 3.6 3.2 1.6 nan nan nan nan nan 8.4 3.5 1.8 1.4 nan nan nan 1.1 nan nan nan 4.7 5.0 4.2 3.1 2.3 1.9 1.1 0.9 0.1 0.4 0.6
5.3 7.3 7.5 6.5 6.5 6.6 9.7 5.6 7.2 5.9 6.9 4.0 5.1 4.6 2.9 2.7 3.5 nan nan nan nan 4.4 3.1 1.8 nan nan nan nan nan nan 0.1 3.3 4.5 5.4 3.4 1.8 1.0 0.9 0.4 0.9 0.3 1.0 0.5
10.6 5.3 4.0 5.2 3.8 4.7 6.7 7.9 10.1 7.2 5.6 6.1 7.0 6.3 3.8 3.5 2.6 3.2 5.6 3.8 1.3 3.8 nan 2.8 nan 1.5 nan nan 1.0 1.3 1.9 1.9 2.2 2.7 2.3 1.1 1.1 1.5 2.1 1.6 2.8 2.5 4.3
6.8 3.5 4.8 7.1 7.9 4.2 3.6 8.1 6.3 3.4 8.2 11.9 12.6 8.0 8.4 8.2 6.7 3.6 7.6 8.2 7.9 6.8 4.5 7.5 5.7 2.8 2.2 1.9 2.7 1.9 1.7 2.0 2.3 2.5 2.6 2.6 2.5 2.6 2.6 2.1 2.4 3.8 4.3
3.6 5.4 5.7 5.8 4.8 4.0 3.9 3.5 nan nan nan nan nan 8.4 11.0 nan nan nan nan nan nan nan 11.0 12.4 5.7 4.4 2.9 3.2 3.8 3.1 2.6 1.9 2.0 2.7 2.8 2.8 2.9 2.9 3.3 3.6 3.5 4.3 4.3
7.9 4.8 5.8 4.4 4.6 5.3 5.1 5.8 7.0 4.1 nan nan nan nan nan nan nan nan nan nan nan nan 18.6 10.1 7.8 4.9 4.7 3.5 4.3 3.6 3.1 2.3 1.2 2.3 2.5 2.7 3.3 3.8 4.1 4.2 3.9 3.4 5.2
7.5 1.6 8.0 6.8 6.2 6.4 7.0 7.2 8.1 11.1 11.2 9.3 nan nan nan nan nan nan nan nan 16.3 nan 18.7 16.4 12.8 9.6 6.7 5.8 4.9 4.8 4.5 3.9 3.1 3.3 3.1 5.4 6.3 6.8 6.4 6.8 5.1 6.2 6.3
8.3 7.9 8.2 8.0 7.7 9.2 8.9 9.2 8.6 12.8 13.2 14.3 11.5 10.7 5.9 nan nan nan nan 16.0 22.3 19.7 20.8 19.6 14.5 11.1 8.4 9.2 8.0 8.9 7.6 8.2 7.5 8.8 8.4 9.2 8.3 8.4 8.6 6.4 4.8 3.4 3.8
7.2 3.0 6.6 11.2 8.9 8.1 8.4 8.6 9.0 13.1 11.5 16.6 16.2 18.5 20.3 15.5 23.0 24.6 22.0 28.4 25.8 22.0 19.0 19.9 18.5 18.4 18.2 16.5 15.4 12.8 12.1 12.6 10.7 11.0 10.4 9.6 8.7 9.3 5.1 8.7 7.7 6.0 8.0
11.4 9.9 1.9 8.7 11.8 12.9 12.9 13.6 10.6 13.8 16.9 20.8 18.5 21.9 nan 24.7 27.5 29.8 32.0 29.8 30.4 30.1 24.3 25.6 24.9 31.4 29.4 33.0 27.1 22.0 17.0 9.5 12.4 13.3 13.8 12.8 11.5 13.6 7.7 4.2 7.9 9.2 8.9
11.7 13.3 13.6 14.9 9.3 10.1 14.7 11.3 12.1 14.6 13.3 15.4 17.3 20.1 nan 19.5 24.8 28.9 30.7 33.8 38.9 41.1 37.0 41.0 38.8 41.8 39.8 40.0 34.0 32.5 24.1 26.2 24.4 19.7 11.7 11.4 12.6 10.1 9.7 6.2 11.0 6.2 9.1
8.6 6.9 8.3 8.6 9.1 5.2 10.9 14.8 12.1 12.4 12.0 19.4 15.6 16.5 20.4 25.2 26.4 27.7 33.6 40.5 40.9 38.5 36.2 38.4 44.9 38.9 35.4 39.1 41.4 37.8 35.4 31.8 30.1 33.9 19.9 14.2 12.8 13.4 11.2 10.9 8.5 10.1 10.0
7.1 7.7 7.9 12.6 10.9 8.4 11.6 13.1 10.8 5.5 12.6 14.3 23.4 21.3 18.5 21.6 26.8 22.9 26.0 32.4 29.9 35.1 32.5 33.3 30.2 31.7 33.3 38.1 45.7 46.0 50.3 51.8 48.3 46.1 41.0 26.2 20.6 12.8 11.2 12.0 9.1 8.0 7.5
10.4 8.2 8.7 8.0 15.2 10.8 9.9 13.7 8.7 13.7 17.7 13.7 18.6 14.8 16.3 12.1 16.2 23.3 22.4 22.5 22.0 22.8 23.2 23.2 27.2 26.5 28.0 26.9 32.5 39.8 37.3 4.1 26.4 4.5 40.9 32.4 36.5 34.3 28.9 15.8 12.7 11.3 9.3
8.0 8.6 9.2 9.8 9.5 11.3 12.5 12.2 12.9 8.9 13.5 15.0 13.6 14.1 12.3 12.1 12.8 16.8 15.5 16.0 13.5 16.2 16.5 21.0 22.2 21.4 19.9 22.3 23.4 7.3 3.9 3.3 32.1 3.8 32.9 29.3 34.4 33.7 32.4 31.2 25.9 18.8 12.2
Water_Equivalent
0.00 0.00 0.00 0.00 0.00 0.00 0.00 0.00 0.00 0.00 0.00 0.00 0.00 0.00 0.00 0.00 0.00 0.00 0.00 0.00 0.00 0.00 0.00 0.00 0.00 0.00 0.02 0.02 0.01 0.01 0.01 0.01 0.20 0.03 0.00 0.00 0.00 0.02 0.00 0.03 0.07 0.00 0.00
0.00 0.00 0.00 0.00 0.00 0.00 0.00 0.00 0.00 0.00 0.00 0.00 0.00 0.00 0.00 0.00 0.00 0.01 0.00 0.00 0.01 0.01 0.01 0.01 0.01 0.00 0.01 0.01 0.02 0.03 0.02 0.01 0.03 0.07 0.00 0.00 0.00 0.01 0.00 0.00 0.00 0.00 0.05
0.00 0.00 0.00 0.00 0.00 0.00 0.00 0.00 0.00 0.00 0.00 0.00 0.00 0.00 0.00 0.00 0.00 0.01 0.01 0.01 0.01 0.01 0.01 0.02 0.01 0.03 0.04 0.07 0.01 0.03 0.03 0.01 0.01 0.17 0.02 0.00 0.00 0.00 0.07 0.03 0.01 0.01 0.00
0.00 0.00 0.00 0.00 0.00 0.00 0.00 0.02 0.00 0.00 0.00 0.00 0.00 0.00 0.00 0.00 0.00 0.00 0.00 0.00 0.00 0.01 0.01 0.01 0.01 0.02 0.05 0.03 0.05 0.05 0.04 0.14 0.12 0.16 0.14 0.01 0.00 0.00 0.08 0.10 0.14 0.11 0.10
0.00 0.00 0.00 0.00 0.00 0.03 0.04 0.04 0.04 0.04 0.03 0.03 0.02 0.00 0.00 0.00 0.00 0.00 0.01 0.02 0.03 0.03 0.03 0.01 0.01 0.01 nan nan 0.13 0.13 0.11 0.18 0.26 0.28 0.19 0.00 0.00 0.13 0.13 0.12 0.14 0.11 0.09
0.00 0.00 0.00 0.06 0.09 0.07 0.09 0.14 0.06 0.04 0.05 0.04 0.03 0.04 0.00 0.00 nan nan 0.04 0.10 0.04 0.05 0.05 0.03 0.01 0.02 0.01 nan nan nan nan 0.29 0.82 0.82 0.39 0.24 0.04 0.12 0.11 0.15 0.19 0.24 0.36
0.08 0.15 0.16 0.18 0.23 0.14 0.10 0.13 0.10 0.10 0.10 0.06 0.05 0.04 0.04 0.03 nan nan nan 0.13 0.10 0.04 0.05 0.04 0.04 0.02 0.04 0.04 nan nan nan nan nan 0.07 0.41 0.13 0.06 0.02 0.03 0.06 0.08 0.29 0.28
0.25 0.33 0.22 0.19 0.31 0.08 0.08 0.08 0.11 0.08 0.09 0.06 0.10 0.10 0.07 0.02 nan nan nan 0.11 0.08 0.06 0.05 0.05 0.05 0.05 0.04 0.06 0.15 0.16 0.12 0.10 0.05 0.01 0.06 0.04 0.02 0.06 0.07 0.06 0.11 0.23 0.28
0.10 0.15 0.18 0.25 0.34 0.13 0.37 0.07 0.06 0.23 0.15 0.30 0.32 0.45 0.38 0.41 nan nan 0.23 0.32 0.24 0.16 0.08 0.07 0.06 0.06 nan nan 0.23 0.34 0.24 0.15 nan nan nan nan nan nan nan 0.70 1.73 1.98 1.11
0.10 0.09 0.11 0.21 0.45 0.35 0.20 0.30 0.37 0.37 0.35 0.43 0.40 0.36 0.11 0.73 nan nan nan 0.80 0.72 0.46 0.16 0.14 0.04 0.07 nan nan 0.19 0.26 0.41 0.19 0.15 0.52 0.09 0.03 nan nan nan 0.06 0.67 1.66 0.96
0.15 0.12 0.14 0.19 0.46 0.29 0.35 0.31 0.43 0.46 0.25 0.44 0.41 0.33 0.38 0.22 0.26 nan nan 0.49 0.68 0.78 0.68 0.45 0.23 nan nan nan nan 0.26 0.32 0.10 0.50 0.46 0.38 0.40 0.22 0.14 0.24 0.18 0.09 0.42 0.83
0.14 0.14 0.29 0.49 0.47 0.48 0.84 0.51 0.70 0.63 0.61 0.54 0.57 0.46 0.42 0.21 nan nan nan nan nan 1.23 0.52 0.29 0.24 nan nan nan 0.20 nan nan nan 0.95 1.05 0.91 0.69 0.50 0.41 0.24 0.21 0.03 0.10 0.13
0.51 0.72 0.72 0.63 0.64 0.65 1.01 0.59 0.84 0.72 0.86 0.49 0.66 0.61 0.41 0.37 0.48 nan nan nan nan 0.67 0.50 0.29 nan nan nan nan nan nan 0.02 0.65 0.88 1.05 0.69 0.40 0.23 0.19 0.08 0.19 0.05 0.18 0.09
1.04 0.51 0.39 0.51 0.40 0.50 0.73 0.89 1.22 0.91 0.71 0.81 0.96 0.89 0.55 0.51 0.39 0.44 0.85 0.58 0.24 0.62 nan 0.47 nan 0.24 nan nan 0.19 0.24 0.38 0.39 0.45 0.55 0.49 0.24 0.25 0.32 0.47 0.34 0.55 0.50 0.81
0.65 0.32 0.47 0.71 0.80 0.44 0.38 0.70 0.57 0.35 0.84 1.31 1.61 1.03 1.06 1.11 0.93 0.51 1.09 1.19 1.18 1.04 0.82 1.28 0.97 0.44 0.38 0.34 0.49 0.36 0.34 0.41 0.44 0.54 0.56 0.55 0.54 0.53 0.52 0.43 0.51 0.72 0.82
0.32 0.52 0.54 0.55 0.48 0.42 0.41 0.36 nan nan nan nan nan 0.99 1.41 nan nan nan nan nan nan nan 1.84 2.00 0.87 0.68 0.44 0.48 0.59 0.50 0.47 0.35 0.38 0.53 0.58 0.59 0.60 0.60 0.65 0.70 0.68 0.80 0.81
0.63 0.39 0.54 0.45 0.42 0.50 0.52 0.62 0.72 0.42 nan nan nan nan nan nan nan nan nan nan nan nan 3.20 1.58 1.21 0.73 0.65 0.41 0.57 0.47 0.44 0.39 0.17 0.43 0.50 0.57 0.70 0.81 0.83 0.79 0.76 0.65 0.99
0.63 0.54 0.68 0.61 0.57 0.61 0.67 0.70 0.76 0.96 1.00 0.79 nan nan nan nan nan nan nan nan 2.41 nan 2.76 2.46 1.95 1.49 0.96 0.76 0.61 0.55 0.51 0.47 0.42 0.57 0.60 1.09 1.31 1.41 1.30 1.35 1.01 1.24 1.22
0.70 0.64 0.65 0.63 0.61 0.78 0.78 0.81 0.76 1.16 1.19 1.35 1.03 0.94 0.74 nan nan nan nan 1.73 2.75 2.43 2.69 2.69 1.91 1.45 1.04 1.20 1.12 1.33 1.07 1.15 1.08 1.51 1.55 1.80 1.67 1.72 1.75 1.28 0.96 0.75 0.79
0.62 0.64 0.65 0.93 0.71 0.64 0.67 0.69 0.73 1.12 0.86 1.40 1.35 1.50 1.71 1.59 2.14 2.22 1.87 2.84 2.71 2.32 1.99 2.22 2.16 2.30 2.33 2.16 2.12 1.92 1.87 1.98 1.73 1.83 1.79 1.79 1.71 1.89 1.05 1.77 1.54 1.17 1.55
1.05 0.85 0.62 0.71 1.00 1.05 1.07 1.12 0.75 1.05 1.25 1.54 1.30 1.58 nan 1.87 2.16 2.41 2.70 2.42 2.60 2.63 2.08 2.34 2.34 3.16 3.28 3.73 3.34 2.99 2.51 1.35 1.88 2.13 2.28 2.28 2.17 2.76 1.56 0.85 1.58 1.81 1.74
1.10 1.22 1.23 1.31 0.75 0.81 1.20 0.84 0.88 1.10 0.90 1.04 1.12 1.28 nan 1.29 1.70 1.97 2.15 2.51 3.01 3.27 2.97 3.53 3.46 3.94 3.82 3.91 3.37 3.49 2.76 3.18 3.20 2.80 1.76 1.87 2.27 1.92 1.96 1.24 2.17 1.21 1.78
0.83 0.63 0.73 0.73 0.70 1.21 0.87 1.23 0.94 0.93 0.82 1.54 1.02 1.09 1.42 1.86 1.93 1.96 2.49 3.14 3.15 2.90 2.67 2.89 3.69 3.10 2.96 3.47 3.78 3.38 3.20 2.96 2.97 3.71 2.53 2.05 2.03 2.36 2.11 2.20 1.61 1.88 1.85
0.70 0.76 0.76 1.22 0.99 0.70 0.98 1.09 0.83 1.32 0.97 1.10 2.05 1.72 1.37 1.59 2.08 1.63 1.94 2.55 2.29 2.83 2.54 2.62 2.22 2.30 2.60 3.29 4.26 4.29 4.81 5.04 4.81 4.74 4.37 2.98 2.82 2.07 1.83 2.13 1.61 1.70 1.30
1.05 0.81 0.86 0.78 1.52 1.08 0.97 1.31 0.78 1.24 1.62 1.21 1.68 1.28 1.40 0.94 1.29 1.98 1.81 1.78 1.68 1.78 1.74 1.73 2.13 2.05 2.16 2.14 2.81 3.64 3.66 1.36 2.79 1.49 3.82 3.01 3.62 3.61 3.22 2.31 2.00 1.75 1.59
0.81 0.87 0.92 0.98 0.95 1.13 1.25 1.22 1.30 0.88 1.35 1.49 1.34 1.36 1.17 1.12 1.18 1.59 1.44 1.45 1.12 1.29 1.29 1.69 1.75 1.67 1.56 1.78 1.91 1.63 1.28 1.10 2.98 1.27 2.88 2.44 2.89 2.76 2.84 2.88 2.52 2.22 1.74
SL_Ratio
nan nan nan nan nan nan nan nan nan nan nan nan nan nan nan nan nan 10.0 8.8 7.5 7.5 8.1 8.3 7.9 6.3 7.5 7.1 6.2 5.8 5.8 5.9 6.0 5.4 4.6 nan nan nan 4.5 4.4 4.5 4.5 nan nan
nan nan nan nan nan nan nan nan nan nan nan nan nan nan nan nan 5.0 6.9 7.3 7.5 7.9 7.5 7.7 8.1 8.1 8.3 7.2 7.2 7.1 5.5 5.9 6.5 6.8 6.7 nan nan nan 4.3 4.4 4.5 5.0 nan 4.5
nan nan nan nan nan nan nan nan nan nan nan nan nan nan 5.0 10.0 6.5 6.6 7.0 7.5 7.0 7.4 7.2 7.5 7.9 6.6 6.8 5.7 7.1 6.8 6.4 6.4 6.1 5.3 6.1 nan nan nan 4.5 4.6 4.5 4.4 5.0
nan nan nan nan nan nan 7.5 8.1 nan nan nan nan nan 12.5 11.0 15.0 8.3 9.3 7.5 8.5 8.8 8.0 8.0 7.6 8.0 7.3 6.7 6.9 7.2 6.9 6.9 5.6 5.1 5.0 5.0 5.7 5.0 5.0 4.5 4.5 4.5 4.8 4.5
nan nan nan nan 5.0 8.4 8.2 8.2 8.1 8.0 7.9 7.6 7.8 10.5 10.0 10.5 10.7 11.7 13.2 8.6 9.1 8.1 7.5 9.7 8.1 5.3 nan nan 6.3 5.8 6.0 5.7 4.9 4.6 4.8 5.7 5.6 4.5 4.4 4.5 4.5 4.5 4.7
9.4 11.7 10.6 9.3 9.0 8.9 8.8 8.6 8.5 8.3 8.1 7.9 7.8 7.7 11.7 11.3 nan nan 11.4 10.8 8.9 8.0 8.3 6.9 9.4 6.3 8.8 nan nan nan nan 5.8 4.8 4.7 4.8 4.8 4.9 4.4 4.4 4.4 4.3 4.2 4.6
10.1 10.0 9.9 9.6 9.4 9.2 9.0 8.8 8.5 8.2 8.0 8.0 7.9 7.7 7.7 7.4 nan nan nan 9.3 8.5 8.5 7.3 7.0 6.7 6.1 5.1 5.9 nan nan nan nan nan 5.0 4.7 4.3 4.6 4.2 4.1 3.8 3.7 3.7 3.8
10.1 10.0 10.1 10.0 10.1 9.3 9.0 8.9 8.7 8.6 8.5 8.4 7.8 7.7 7.8 7.6 nan nan nan 9.6 8.9 7.3 7.0 6.6 6.6 6.4 5.8 5.8 6.0 5.7 5.8 5.2 5.1 5.5 4.7 4.0 2.9 2.5 3.1 3.8 3.8 3.6 4.0
10.2 10.4 10.1 10.3 10.6 10.1 9.8 9.8 10.0 9.2 8.5 8.0 7.7 7.5 7.6 7.0 nan nan 8.2 7.8 7.1 6.6 6.5 6.9 7.2 6.9 nan nan 6.1 6.1 5.5 5.2 nan nan nan nan nan nan nan 4.1 4.2 4.4 5.1
11.1 11.3 11.1 11.2 10.8 10.8 9.9 9.9 9.3 8.9 9.0 8.0 8.0 7.7 6.8 6.6 nan nan nan 7.4 6.6 6.4 6.0 5.6 5.5 6.5 nan nan 6.4 6.2 5.8 5.8 4.6 4.7 4.5 4.6 nan nan nan 4.4 3.8 4.4 4.8
11.4 11.8 11.6 11.2 10.8 11.0 10.4 9.4 9.7 9.1 8.8 8.3 8.3 7.8 8.1 7.9 7.9 nan nan 7.7 6.9 6.6 6.3 6.0 5.9 nan nan nan nan 6.3 5.8 5.1 4.6 4.3 4.5 4.4 4.5 4.5 4.5 4.5 4.6 4.1 4.2
11.7 12.4 11.0 10.6 10.8 10.2 9.6 9.1 8.8 8.8 8.6 8.3 8.1 7.9 7.6 7.8 nan nan nan nan nan 6.8 6.7 6.1 5.9 nan nan nan 5.5 nan nan nan 4.9 4.7 4.6 4.4 4.5 4.5 4.5 4.5 4.5 4.3 4.5
10.4 10.2 10.4 10.2 10.2 10.1 9.6 9.4 8.5 8.2 8.0 8.1 7.7 7.6 7.2 7.2 7.2 nan nan nan nan 6.6 6.2 6.3 nan nan nan nan nan nan 3.0 5.0 5.2 5.2 4.9 4.4 4.5 4.5 4.5 4.8 5.4 5.6 5.8
10.2 10.4 10.4 10.3 9.5 9.4 9.2 8.9 8.3 8.0 7.8 7.5 7.3 7.1 7.0 6.8 6.7 7.3 6.6 6.5 5.3 6.2 nan 5.9 nan 6.3 nan nan 5.5 5.3 5.2 4.8 4.9 5.0 4.6 4.5 4.5 4.6 4.6 4.7 5.0 5.0 5.3
10.5 10.7 10.2 10.0 9.8 9.4 9.5 11.6 10.9 9.7 9.9 9.0 7.8 7.7 7.9 7.4 7.2 7.2 6.9 6.9 6.6 6.6 5.5 5.8 5.9 6.3 6.0 5.7 5.5 5.3 5.2 4.9 5.2 4.7 4.7 4.7 4.7 4.9 5.0 4.9 4.7 5.2 5.2
11.0 10.4 10.5 10.5 10.0 9.6 9.6 9.6 nan nan nan nan nan 8.5 7.8 nan nan nan nan nan nan nan 6.0 6.2 6.6 6.5 6.7 6.7 6.4 6.1 5.5 5.3 5.3 5.1 4.8 4.8 4.9 4.9 5.1 5.2 5.1 5.4 5.4
12.6 12.3 10.8 9.9 10.7 10.4 9.7 9.3 9.8 9.7 nan nan nan nan nan nan nan nan nan nan nan nan 5.8 6.4 6.4 6.7 7.2 8.5 7.5 7.8 7.0 6.0 6.9 5.4 5.0 4.9 4.7 4.7 5.0 5.3 5.1 5.3 5.3
12.0 3.0 11.7 11.3 10.8 10.5 10.5 10.2 10.7 11.5 11.1 11.7 nan nan nan nan nan nan nan nan 6.8 nan 6.8 6.7 6.5 6.5 7.0 7.6 8.0 8.8 8.7 8.4 7.5 5.9 5.2 4.9 4.8 4.8 4.9 5.0 5.1 5.0 5.2
11.9 12.4 12.8 12.8 12.6 11.8 11.5 11.3 11.3 11.1 11.0 10.6 11.2 11.4 8.0 nan nan nan nan 9.2 8.1 8.1 7.8 7.3 7.6 7.7 8.1 7.7 7.2 6.7 7.1 7.2 7.0 5.9 5.4 5.1 5.0 4.9 4.9 5.0 5.0 4.5 4.8
11.5 4.6 10.1 12.1 12.6 12.7 12.5 12.5 12.3 11.8 13.4 11.9 12.0 12.3 11.9 9.8 10.7 11.1 11.7 10.0 9.5 9.5 9.5 9.0 8.6 8.0 7.8 7.6 7.3 6.7 6.5 6.4 6.2 6.0 5.8 5.4 5.1 4.9 4.9 4.9 5.0 5.1 5.1
10.9 11.6 3.0 12.1 11.9 12.2 12.0 12.1 14.2 13.2 13.5 13.5 14.2 13.8 nan 13.2 12.7 12.4 11.9 12.3 11.7 11.4 11.7 10.9 10.6 9.9 9.0 8.8 8.1 7.4 6.8 7.0 6.6 6.2 6.0 5.6 5.3 4.9 4.9 5.0 5.0 5.1 5.1
10.7 10.8 11.1 11.4 12.4 12.6 12.2 13.5 13.8 13.2 14.7 14.8 15.5 15.7 nan 15.1 14.6 14.6 14.3 13.4 12.9 12.6 12.5 11.6 11.2 10.6 10.4 10.2 10.1 9.3 8.7 8.2 7.6 7.0 6.6 6.1 5.6 5.2 4.9 5.0 5.1 5.1 5.1
10.4 11.0 11.3 11.9 12.9 4.3 12.5 12.0 12.8 13.4 14.6 12.6 15.3 15.1 14.3 13.5 13.6 14.2 13.5 12.9 13.0 13.3 13.5 13.3 12.2 12.6 12.0 11.3 10.9 11.2 11.1 10.7 10.1 9.1 7.9 6.9 6.3 5.7 5.3 4.9 5.3 5.4 5.4
10.1 10.1 10.5 10.3 11.0 12.0 11.8 12.0 13.0 4.1 13.0 13.0 11.4 12.4 13.5 13.6 12.9 14.0 13.4 12.7 13.1 12.4 12.8 12.7 13.6 13.8 12.8 11.6 10.7 10.7 10.5 10.3 10.0 9.7 9.4 8.8 7.3 6.2 6.1 5.6 5.6 4.7 5.8
9.9 10.0 10.1 10.2 10.0 10.0 10.2 10.4 11.1 11.0 10.9 11.3 11.1 11.5 11.7 12.9 12.6 11.7 12.3 12.6 13.1 12.8 13.3 13.4 12.8 12.9 13.0 12.6 11.6 10.9 10.2 3.0 9.5 3.0 10.7 10.8 10.1 9.5 9.0 6.9 6.3 6.5 5.8
9.9 9.9 9.9 10.0 10.0 10.0 10.0 10.0 9.9 10.1 10.0 10.1 10.2 10.4 10.5 10.8 10.9 10.6 10.7 11.0 12.0 12.6 12.8 12.5 12.7 12.8 12.8 12.5 12.2 4.5 3.0 3.0 10.8 3.0 11.4 12.0 11.9 12.2 11.4 10.8 10.3 8.5 7.0